Flag for Norway Weather past 2 weeks in Ny-Ålesund, Svalbard, Norway

Now
26 °F

Chilly.


Feels Like: 14 °F
Forecast: 17 / 25 °F
Wind: 14 mph from East

Location: Ny Alesund

Current Time: Mar 30, 2015 at 6:57:49 PM

Latest Report: Mar 30, 2015 at 6:00 PM


Visibility: N/A

Pressure: 29.26 "Hg

Humidity: 60%

Dew point: 14 °F

Location of Ny-ÅlesundLocation

Historic Weather in Ny-Ålesund — Graph

°F

Ny-Ålesund temperature yesterday

Maximum temperature yesterday: 23 °F (at 6:00 PM)
Minimum temperature yesterday: 11 °F (at 6:00 AM)
Average temperature yesterday: 19 °F

Past Weeks' High & Low Weather Summary

 TemperatureHumidityPressure
High37 °F (Mar 27, 7:00 AM)90% (Mar 15, 6:00 PM)30.31 "Hg (Mar 15, 6:00 PM)
Low-3 °F (Mar 19, 8:00 PM)41% (Mar 23, 4:00 PM)28.91 "Hg (Mar 15, 6:00 PM)
Average14 °F69%29.78 "Hg
* Reported Mar 15 4:00 PM — Mar 30 5:00 PM, Ny-Ålesund, Weather by CustomWeather, © 2015

Note: Actual official high and low records may vary slightly from our data, if they occured in-between our weather recording intervals... More about our weather records

Advertising

Ny-Ålesund weather history for previous 24 hours

 ConditionsComfort  
Time TempWeatherWind HumidityBarometerVisibility
5:00 PM
Mon, Mar 30
26 °FChilly.13 mph57%29.29 "HgN/A
4:00 PM26 °FChilly.10 mph61%29.32 "HgN/A
3:00 PM27 °FChilly.10 mph59%29.32 "HgN/A
2:00 PM26 °FOvercast.10 mph59%29.32 "Hg47 mi
1:00 PM26 °FChilly.9 mph59%29.35 "HgN/A
12:00 PM26 °FChilly.13 mph62%29.35 "HgN/A
11:00 AM25 °FChilly.10 mph60%29.38 "HgN/A
10:00 AM24 °FCold.13 mph61%29.38 "HgN/A
9:00 AM24 °FCold.14 mph60%29.38 "HgN/A
8:00 AM23 °FOvercast.14 mph60%29.38 "Hg31 mi
7:00 AM23 °FCold.9 mph58%29.38 "HgN/A
6:00 AM22 °FCold.13 mph61%29.38 "HgN/A
5:00 AM23 °FCold.13 mph61%29.41 "HgN/A
4:00 AM22 °FCold.12 mph64%29.41 "HgN/A
3:00 AM22 °FCold.15 mph59%29.41 "HgN/A
2:00 AM22 °FCold.12 mph62%29.44 "HgN/A
1:00 AM21 °FCold.13 mph64%29.44 "HgN/A
12:00 AM23 °FCold.13 mph61%29.44 "HgN/A
11:00 PM
Sun, Mar 29
22 °FCold.14 mph70%29.41 "HgN/A
10:00 PM23 °FCold.14 mph69%29.41 "HgN/A
9:00 PM22 °FCold.10 mph58%29.41 "HgN/A
8:00 PM22 °FOvercast.14 mph68%29.41 "Hg47 mi
7:00 PM22 °FCold.13 mph69%29.41 "HgN/A
6:00 PM23 °FCold.12 mph68%29.44 "HgN/A
Weather by CustomWeather, © 2015

See weather overviewHow to use our weather pages